Flag for Austria Weather past 2 weeks in Steyr, Upper Austria, Austria

Now
75 °F

Mild.


Feels Like: 78 °F
Forecast: 57 / 69 °F
Wind: 5 mph from Southwest

Location: Kremsmuenster

Current Time: Sep 1, 2015 at 2:14:04 AM

Latest Report: Sep 1, 2015 at 1:00 AM


Visibility: N/A

Pressure: 29.85 "Hg

Humidity: 55%

Dew point: 58 °F

Location of SteyrLocation

Historic Weather in Steyr — Graph

°F

Steyr temperature yesterday

Maximum temperature yesterday: 95 °F (at 5:00 PM)
Minimum temperature yesterday: 65 °F (at 5:00 AM)
Average temperature yesterday: 79 °F

Past Weeks' High & Low Weather Summary

 TemperatureHumidityPressure
High95 °F (Aug 30, 5:00 PM)93% (Aug 17, 8:00 AM)30.27 "Hg (Aug 17, 8:00 AM)
Low49 °F (Aug 26, 7:00 AM)25% (Aug 31, 4:00 PM)29.65 "Hg (Aug 24, 6:00 PM)
Average68 °F65%30.01 "Hg
* Reported Midnight between Aug 16 and Aug 17 — Midnight between Aug 31 and Sep 1, Steyr, Weather by CustomWeather, © 2015

Note: Actual official high and low records may vary slightly from our data, if they occured in-between our weather recording intervals... More about our weather records

Advertising

Steyr weather history for previous 24 hours

 ConditionsComfort  
Time TempWeatherWind HumidityBarometerVisibility
12:00 AM
Tue, Sep 1
76 °FMild.5 mph50%29.85 "HgN/A
10:00 PM
Mon, Aug 31
78 °FWarm.6 mph48%29.83 "HgN/A
9:00 PM81 °FWarm.5 mph45%29.82 "HgN/A
8:00 PM83 °FPassing clouds.9 mph37%29.80 "Hg3 mi
7:00 PM88 °FPleasantly warm.1 mph31%29.79 "HgN/A
6:00 PM94 °FExtremely hot.1 mph25%29.79 "HgN/A
5:00 PM95 °FSunny.3 mph26%29.80 "Hg6 mi
4:00 PM94 °FExtremely hot.1 mph25%29.82 "HgN/A
3:00 PM92 °FHot.1 mph30%29.85 "HgN/A
2:00 PM91 °FHot.No wind34%29.87 "HgN/A
1:00 PM88 °FPassing clouds.13 mph38%29.89 "Hg1 mi
12:00 PM85 °FWarm.No wind40%29.92 "HgN/A
11:00 AM80 °FWarm.No wind48%29.94 "HgN/A
10:00 AM76 °FMild.1 mph58%29.97 "HgN/A
9:00 AM72 °FMild.1 mph62%29.98 "HgN/A
8:00 AM69 °FSunny.3 mph64%29.99 "Hg22 mi
7:00 AM67 °FPassing clouds.5 mph66%29.98 "Hg34 mi
6:00 AM67 °FMild.2 mph67%29.98 "HgN/A
5:00 AM65 °FMild.2 mph76%29.98 "HgN/A
4:00 AM71 °FMild.5 mph61%29.98 "HgN/A
3:00 AM70 °FMild.3 mph66%29.99 "HgN/A
2:00 AM70 °FMild.2 mph70%30.01 "HgN/A
Weather by CustomWeather, © 2015

See weather overviewHow to use our weather pages